Location: Remedello Sotto
(45.2500°N, 10.3667°E)
Time: 10:28:02
(UTC+00:00)

CSL-04 Rocket - Pass Details

Date: 03 February 2023
Orbit: 806 x 859 km, 98.8° (Epoch: 20 March)

Event Time Altitude Azimuth Distance (km) Brightness Sun altitude
Exits shadow 18:47:13 58° 48° (NE) 954 3.7 -24.7°
Drops below altitude 10° 18:52:05 10° 352° (N) 2,444 6.2 -25.5°
Sets 18:54:30 0° 349° (N) 3,390 7.0 -26.0°
